Weather History for Skagway, AK

Change the Weather History Date:

Tuesday, October 25, 2011

  Actual Average Record
Temperature  
Mean Temperature 44 °F -  
Max Temperature 46 °F 42 °F 55 °F (2003)
Min Temperature 42 °F 33 °F 24 °F (1971)
Degree Days  
Heating Degree Days 21    
Moisture  
Dew Point 38 °F    
Average Humidity 77    
Maximum Humidity 89    
Minimum Humidity 68    
Precipitation  
Precipitation 0.76 in - - ()
Sea Level Pressure  
Sea Level Pressure 29.77 in    
Wind  
Wind Speed 26 mph (SSW)    
Max Wind Speed 34 mph    
Max Gust Speed 46 mph    
Visibility 8 miles    
Events Rain    
Averages and records for this station are not official NWS values.
T = Trace of Precipitation, MM = Missing Value Source: NWS Daily Summary

Daily Weather History Graph

Daily Weather History Graph

Search for Another Location

Airport:

Trip Planner

Search our weather history database for the weather conditions in past years. The results will help you decide how hot, cold, wet, or windy it might be!

Date:

Astronomy

Oct. 25, 2011 Rise Set
Actual Time 8:03 AM AKDT 5:25 PM AKDT
Civil Twilight 7:20 AM AKDT 6:08 PM AKDT
Nautical Twilight 6:32 AM AKDT 6:56 PM AKDT
Astronomical Twilight 5:45 AM AKDT 7:43 PM AKDT
Moon 6:40 AM AKDT (10/25) 4:29 PM AKDT (10/25)
Length of Visible Light 10h 48m
Length of Day
9h 22m
Waning Crescent, 2% of the Moon is Illuminated
Oct 25
Waning Crescent
Oct 26
New
Nov 2
First Quarter
Nov 10
Full
Nov 18
Last Quarter

Hourly Weather History & Observations

Time (AKDT) Temp. Windchill Dew Point Humidity Pressure Visibility Wind Dir Wind Speed Gust Speed Precip Events Conditions
12:53 AM 46.9 °F - 37.9 °F 71% 30.08 in 10.0 mi SSW 26.5 mph 35.7 mph N/A   Overcast
1:53 AM 46.0 °F 37.2 °F 37.9 °F 73% 30.08 in 10.0 mi SSW 26.5 mph 40.3 mph N/A   Overcast
2:53 AM 46.9 °F - 37.0 °F 68% 30.08 in 10.0 mi SSW 24.2 mph 36.8 mph N/A   Overcast
3:53 AM 46.0 °F 37.4 °F 37.9 °F 73% 30.07 in 10.0 mi SSW 25.3 mph 34.5 mph N/A   Overcast
4:53 AM 46.9 °F - 37.9 °F 71% 30.06 in 10.0 mi SSW 23.0 mph 32.2 mph N/A   Overcast
5:53 AM 46.9 °F - 37.0 °F 68% 30.05 in 10.0 mi SSW 27.6 mph 38.0 mph N/A   Overcast
6:53 AM 46.9 °F - 37.0 °F 68% 30.03 in 10.0 mi SSW 25.3 mph 39.1 mph N/A   Overcast
7:53 AM 46.0 °F 36.9 °F 37.9 °F 73% 30.00 in 10.0 mi SSW 28.8 mph 39.1 mph N/A   Overcast
8:53 AM 46.0 °F 37.6 °F 37.9 °F 73% 29.99 in 10.0 mi SSW 24.2 mph 36.8 mph N/A   Overcast
9:53 AM 46.9 °F - 37.9 °F 71% 29.93 in 10.0 mi SSW 32.2 mph 41.4 mph N/A   Mostly Cloudy
10:53 AM 46.0 °F 36.1 °F 39.0 °F 76% 29.91 in 10.0 mi SSW 34.5 mph 41.4 mph N/A   Overcast
11:53 AM 46.9 °F - 37.9 °F 71% 29.88 in 10.0 mi SSW 31.1 mph 43.7 mph 0.00 in   Overcast
12:53 PM 46.0 °F 36.4 °F 37.9 °F 73% 29.84 in 10.0 mi SSW 32.2 mph 46.0 mph 0.00 in   Mostly Cloudy
1:53 PM 46.0 °F 36.9 °F 37.9 °F 73% 29.78 in 10.0 mi SSW 28.8 mph 42.6 mph N/A   Overcast
2:39 PM 44.6 °F 35.1 °F 39.2 °F 81% 29.74 in 5.0 mi SSW 27.6 mph 35.7 mph N/A   Haze
2:53 PM 45.0 °F 34.6 °F 39.0 °F 80% 29.73 in 4.0 mi SSW 34.5 mph 43.7 mph 0.01 in   Haze
3:53 PM 45.0 °F 34.9 °F 39.9 °F 82% 29.68 in 4.0 mi SSW 32.2 mph 42.6 mph 0.04 in Rain Light Rain
4:53 PM 45.0 °F 36.2 °F 39.9 °F 82% 29.63 in 4.0 mi SSW 24.2 mph 41.4 mph 0.05 in Rain Light Rain
5:53 PM 44.1 °F 35.9 °F 39.9 °F 85% 29.56 in 5.0 mi SSW 19.6 mph 35.7 mph 0.05 in Rain Light Rain
6:53 PM 43.0 °F 34.8 °F 39.9 °F 89% 29.53 in 4.0 mi SSW 18.4 mph - 0.07 in Rain Rain
7:53 PM 43.0 °F 37.7 °F 39.9 °F 89% 29.47 in 5.0 mi SSW 9.2 mph 18.4 mph 0.10 in Rain Rain
8:53 PM 43.0 °F 38.8 °F 39.0 °F 86% 29.43 in 5.0 mi SSW 6.9 mph - 0.12 in Rain Rain
9:53 PM 43.0 °F 38.2 °F 39.0 °F 86% 29.39 in 4.0 mi SSW 8.1 mph 17.3 mph 0.15 in Rain Rain
10:53 PM 43.0 °F 31.8 °F 39.0 °F 86% 29.36 in 4.0 mi SSW 34.5 mph 41.4 mph 0.14 in Rain Light Rain
11:50 PM 42.8 °F 33.1 °F 37.4 °F 81% 29.34 in 10.0 mi SSW 25.3 mph 39.1 mph 0.03 in   Overcast
11:53 PM 43.0 °F 34.0 °F 37.0 °F 80% 29.34 in 10.0 mi SSW 21.9 mph 39.1 mph 0.03 in   Overcast